Bentonville, AR

11:23 AM CST on February 10, 2016 (GMT -0600)
Bentonville Municipal-Thaden

Weather History for KVBT - February, 2014

Change the Weather History Date:

Wednesday, February 5, 2014

  Actual Average Record
Temperature  
Mean Temperature 18 °F -  
Max Temperature 28 °F 45 °F 70 °F (1963)
Min Temperature 8 °F 25 °F 1 °F (1989)
Degree Days  
Heating Degree Days 47    
Moisture  
Dew Point 8 °F    
Average Humidity 71    
Maximum Humidity 86    
Minimum Humidity 58    
Precipitation  
Precipitation 0.02 in - - ()
Sea Level Pressure  
Sea Level Pressure 30.37 in    
Wind  
Wind Speed 12 mph (NNW)    
Max Wind Speed 18 mph    
Max Gust Speed 23 mph    
Visibility 8 miles    
Events      
Averages and records for this station are not official NWS values.
T = Trace of Precipitation, MM = Missing Value Source: NWS Daily Summary

Daily Weather History Graph

Daily Weather History Graph

Search for Another Location

Airport or City:

Trip Planner

Search our weather history database for the weather conditions in past years. The results will help you decide how hot, cold, wet, or windy it might be!

Date:

Astronomy

Feb. 05, 2014 Rise Set
Actual Time 7:14 AM CST 5:47 PM CST
Civil Twilight 6:47 AM CST 6:14 PM CST
Nautical Twilight 6:17 AM CST 6:45 PM CST
Astronomical Twilight 5:47 AM CST 7:15 PM CST
Moon 10:42 AM CST (2/5) No Moon Set
Length of Visible Light 11h 26m
Length of Day
10h 32m
Waxing Crescent, 39% of the Moon is Illuminated
Feb 5
Waxing Crescent
Feb 6
First Quarter
Feb 14
Full
Feb 22
Last Quarter
Mar 1
New

Hourly Weather History & Observations

Time (CST) Temp. Windchill Dew Point Humidity Pressure Visibility Wind Dir Wind Speed Gust Speed Precip Events Conditions
12:15 AM 28.4 °F 17.0 °F 24.8 °F 86% 29.99 in 10.0 mi WNW 15.0 mph 21.9 mph N/A   Overcast
12:35 AM 28.4 °F 17.0 °F 24.8 °F 86% 30.00 in 7.0 mi NW 15.0 mph 19.6 mph N/A   Overcast
12:55 AM 28.4 °F 16.2 °F 23.0 °F 80% 30.01 in 6.0 mi NW 17.3 mph 23.0 mph N/A   Overcast
1:15 AM 26.6 °F 15.2 °F 23.0 °F 86% 30.03 in 5.0 mi NW 13.8 mph 18.4 mph N/A   Overcast
1:35 AM 26.6 °F 16.2 °F 21.2 °F 80% 30.04 in 3.0 mi NW 11.5 mph - N/A   Overcast
1:55 AM 24.8 °F 11.9 °F 19.4 °F 80% 30.06 in 3.0 mi NW 16.1 mph 20.7 mph N/A   Overcast
2:15 AM 23.0 °F 11.1 °F 19.4 °F 86% 30.08 in 4.0 mi NNW 12.7 mph 18.4 mph N/A   Overcast
2:35 AM 21.2 °F 7.8 °F 17.6 °F 86% 30.10 in 5.0 mi NNW 15.0 mph 18.4 mph N/A   Overcast
2:55 AM 21.2 °F 7.8 °F 17.6 °F 86% 30.11 in 5.0 mi NNW 15.0 mph 23.0 mph N/A   Overcast
3:15 AM 21.2 °F 8.3 °F 15.8 °F 80% 30.12 in 10.0 mi NNW 13.8 mph 19.6 mph N/A   Overcast
3:35 AM 21.2 °F 7.3 °F 14.0 °F 74% 30.14 in 10.0 mi NNW 16.1 mph 21.9 mph N/A   Overcast
3:55 AM 19.4 °F 6.0 °F 12.2 °F 74% 30.14 in 10.0 mi NNW 13.8 mph 23.0 mph N/A   Overcast
4:15 AM 19.4 °F 4.5 °F 12.2 °F 74% 30.16 in 7.0 mi NNW 17.3 mph 23.0 mph N/A   Overcast
4:35 AM 19.4 °F 7.2 °F 14.0 °F 80% 30.19 in 8.0 mi NNW 11.5 mph - N/A   Overcast
4:55 AM 19.4 °F 5.5 °F 12.2 °F 74% 30.20 in 10.0 mi NNW 15.0 mph 20.7 mph N/A   Overcast
5:15 AM 19.4 °F 4.1 °F 12.2 °F 74% 30.22 in 10.0 mi North 18.4 mph - N/A   Overcast
5:35 AM 19.4 °F 5.5 °F 12.2 °F 74% 30.23 in 10.0 mi North 15.0 mph 20.7 mph N/A   Overcast
5:55 AM 19.4 °F 7.2 °F 10.4 °F 68% 30.25 in 10.0 mi North 11.5 mph 19.6 mph N/A   Overcast
6:15 AM 19.4 °F 7.9 °F 12.2 °F 74% 30.27 in 5.0 mi NNW 10.4 mph - N/A   Overcast
6:35 AM 17.6 °F 5.7 °F 10.4 °F 73% 30.28 in 10.0 mi NNW 10.4 mph 17.3 mph N/A   Overcast
6:55 AM 17.6 °F 5.0 °F 8.6 °F 68% 30.30 in 9.0 mi NNW 11.5 mph 19.6 mph N/A   Overcast
7:15 AM 17.6 °F 7.3 °F 10.4 °F 73% 30.32 in 6.0 mi NNW 8.1 mph - N/A   Overcast
7:35 AM 15.8 °F 5.1 °F 8.6 °F 73% 30.33 in 3.0 mi NNW 8.1 mph - N/A   Overcast
7:55 AM 15.8 °F 2.1 °F 8.6 °F 73% 30.34 in 4.0 mi NW 12.7 mph 17.3 mph N/A   Overcast
8:15 AM 14.0 °F 2.0 °F 8.6 °F 79% 30.35 in 3.0 mi NNW 9.2 mph - N/A   Overcast
8:35 AM 14.0 °F 0.5 °F 8.6 °F 79% 30.37 in 4.0 mi NNW 11.5 mph 17.3 mph N/A   Overcast
8:55 AM 14.0 °F 0.5 °F 6.8 °F 73% 30.38 in 3.0 mi North 11.5 mph - N/A   Overcast
9:15 AM 12.2 °F -2.5 °F 6.8 °F 79% 30.39 in 3.0 mi NNW 12.7 mph - N/A   Overcast
9:35 AM 12.2 °F -1.8 °F 5.0 °F 73% 30.40 in 5.0 mi NNW 11.5 mph 17.3 mph N/A   Overcast
9:55 AM 12.2 °F -1.8 °F 5.0 °F 73% 30.41 in 9.0 mi North 11.5 mph - N/A   Overcast
10:15 AM 12.2 °F -1.0 °F 6.8 °F 79% 30.43 in 5.0 mi NNW 10.4 mph - N/A   Overcast
10:35 AM 12.2 °F -1.0 °F 3.2 °F 67% 30.44 in 10.0 mi North 10.4 mph - N/A   Overcast
10:55 AM 12.2 °F 2.9 °F 3.2 °F 67% 30.46 in 10.0 mi NNW 5.8 mph - N/A   Overcast
11:15 AM 12.2 °F -1.0 °F 3.2 °F 67% 30.46 in 10.0 mi NNW 10.4 mph - N/A   Overcast
11:35 AM 12.2 °F -1.0 °F 3.2 °F 67% 30.46 in 10.0 mi NNW 10.4 mph - N/A   Overcast
11:55 AM 12.2 °F 0.7 °F 6.8 °F 79% 30.45 in 10.0 mi NNW 8.1 mph - N/A   Overcast
12:15 PM 14.0 °F 2.9 °F 5.0 °F 67% 30.45 in 10.0 mi NW 8.1 mph - N/A   Overcast
12:35 PM 14.0 °F 2.9 °F 3.2 °F 62% 30.44 in 10.0 mi NNW 8.1 mph - N/A   Overcast
12:55 PM 15.8 °F 4.2 °F 5.0 °F 62% 30.44 in 10.0 mi NW 9.2 mph - N/A   Mostly Cloudy
1:15 PM 15.8 °F 3.4 °F 6.8 °F 68% 30.43 in 10.0 mi NNW 10.4 mph - N/A   Scattered Clouds
1:35 PM 15.8 °F 3.4 °F 6.8 °F 68% 30.44 in 10.0 mi West 10.4 mph - N/A   Mostly Cloudy
1:55 PM 15.8 °F 2.7 °F 5.0 °F 62% 30.44 in 10.0 mi NW 11.5 mph - N/A   Scattered Clouds
2:15 PM 17.6 °F 7.3 °F 6.8 °F 63% 30.43 in 10.0 mi NW 8.1 mph - N/A   Clear
2:35 PM 17.6 °F 8.2 °F 6.8 °F 63% 30.44 in 10.0 mi NNW 6.9 mph - N/A   Clear
2:55 PM 17.6 °F 6.4 °F 6.8 °F 63% 30.44 in 10.0 mi NW 9.2 mph - N/A   Clear
3:15 PM 17.6 °F 6.4 °F 6.8 °F 63% 30.45 in 10.0 mi NW 9.2 mph - N/A   Clear
3:35 PM 17.6 °F 7.3 °F 6.8 °F 63% 30.45 in 10.0 mi NNW 8.1 mph - N/A   Clear
3:55 PM 17.6 °F 6.4 °F 6.8 °F 63% 30.45 in 10.0 mi NNW 9.2 mph - N/A   Clear
4:15 PM 17.6 °F 5.0 °F 5.0 °F 58% 30.45 in 10.0 mi North 11.5 mph - N/A   Clear
4:35 PM 15.8 °F 5.1 °F 6.8 °F 68% 30.46 in 10.0 mi NNW 8.1 mph - N/A   Clear
4:55 PM 15.8 °F 4.2 °F 5.0 °F 62% 30.46 in 10.0 mi NNW 9.2 mph - N/A   Clear
5:15 PM 15.8 °F 2.7 °F 3.2 °F 58% 30.48 in 10.0 mi North 11.5 mph - N/A   Clear
5:35 PM 15.8 °F 5.1 °F 5.0 °F 62% 30.49 in 10.0 mi North 8.1 mph - N/A   Clear
5:55 PM 14.0 °F 2.9 °F 3.2 °F 62% 30.50 in 10.0 mi NNW 8.1 mph - N/A   Clear
6:15 PM 12.2 °F -1.0 °F 3.2 °F 67% 30.51 in 10.0 mi North 10.4 mph - N/A   Clear
6:35 PM 12.2 °F 0.7 °F 3.2 °F 67% 30.51 in 10.0 mi NNW 8.1 mph - N/A   Clear
6:55 PM 12.2 °F 0.7 °F 3.2 °F 67% 30.51 in 10.0 mi NNW 8.1 mph - N/A   Clear
7:15 PM 12.2 °F 0.7 °F 3.2 °F 67% 30.52 in 10.0 mi NNW 8.1 mph - N/A   Clear
7:35 PM 12.2 °F -0.2 °F 3.2 °F 67% 30.53 in 10.0 mi NNW 9.2 mph - N/A   Clear
7:55 PM 12.2 °F 1.7 °F 1.4 °F 62% 30.53 in 10.0 mi NNW 6.9 mph - N/A   Clear
8:15 PM 10.4 °F -3.3 °F 3.2 °F 73% 30.52 in 10.0 mi North 10.4 mph - N/A   Clear
8:35 PM 10.4 °F -3.3 °F 3.2 °F 73% 30.52 in 10.0 mi North 10.4 mph - N/A   Partly Cloudy
8:55 PM 10.4 °F -3.3 °F 1.4 °F 67% 30.53 in 10.0 mi North 10.4 mph - N/A   Mostly Cloudy
9:15 PM 10.4 °F -4.8 °F 3.2 °F 73% 30.52 in 10.0 mi North 12.7 mph - N/A   Mostly Cloudy
9:35 PM 10.4 °F -3.3 °F 1.4 °F 67% 30.52 in 10.0 mi NNE 10.4 mph - N/A   Mostly Cloudy
9:55 PM 10.4 °F -4.8 °F 1.4 °F 67% 30.52 in 10.0 mi NNE 12.7 mph - N/A   Scattered Clouds
10:15 PM 8.6 °F -7.7 °F 1.4 °F 73% 30.53 in 10.0 mi North 13.8 mph - N/A   Partly Cloudy
10:35 PM 8.6 °F -5.5 °F 1.4 °F 73% 30.52 in 10.0 mi NNE 10.4 mph - N/A   Clear
10:55 PM 8.6 °F -6.3 °F -0.4 °F 67% 30.53 in 10.0 mi NNE 11.5 mph - N/A   Clear
11:15 PM 8.6 °F -7.0 °F -0.4 °F 67% 30.52 in 10.0 mi North 12.7 mph - N/A   Clear
11:35 PM 8.6 °F -6.3 °F -0.4 °F 67% 30.52 in 10.0 mi NNE 11.5 mph - N/A   Clear
11:55 PM 8.6 °F -7.0 °F -0.4 °F 67% 30.51 in 10.0 mi NNE 12.7 mph - N/A   Clear